OBJECT B, 67364

Orbit data source: Space-Track

You're viewing an uncataloged RSO

Recently launched and/or uncataloged RSOs may have evolving metadata. Metadata may include the following, but is not limited to: Owner, Manufacturer, Bus, Motor, and Mission.

OBJECT B, 67364 is a satellite in SSO that was launched on Sun, 11 Jan 2026 UTC via an FALCON 9 launch vehicle from the Air Force Western Test Range (AFWTR). Unknown objects in Earth's orbit typically refer to objects detected orbiting the Earth but have not yet been identified or cataloged. These objects could be anything from previously untracked satellites, spent rocket stages, debris from satellite collisions, or even natural meteoroids temporarily captured by Earth's gravity.

Loading next visibility...
Identifier
67364, 2026-004B
Orbit
SSO
Country
Flag of TBDTBD
Related business
Manufacturer
DCUBED
Mission
Operational Commercial Technology
Bus & Motor
CUBESAT 3U, Unknown motor
Mass
5 kg wet, 5 kg dry
Launch date (UTC)
2026-01-11 (8 months ago)
Launch vehicle
FALCON 9
Launch site
Air Force Western Test Range (AFWTR)
Object type
Unknown
Shape & HBR
Box + 1 Rod, 0.4 m
Radar Cross Section
0.035 m², Medium (>0.1 m² and < 1m²)

Expand to show TLE details & history
Last TLE update: 20 hours ago

TLE from 20 hours ago
0 OBJECT B
1 67364U 26004B   26263.99364575  .00000974  00000-0  11209-3 0  9991
2 67364  97.8136 261.1047 0008818 164.6555 195.4930 14.87970747 37533
Epoch: 2026-09-20T23:50Z
TLE epoch observation values (Epoch: 2026-09-20T23:50:50.992Z)
Latitude
-0.0001°
Longitude
-96.48761°
Altitude
613.247 km
Speed
7.549 km/s
True Right ascension
17h 24m 25s
True Declination
0° 00' 00"
Sunlit
Object was in daylight at epoch
Visualization orbit readout
Latitude
Unknown
Longitude
Unknown
Altitude
Unknown
Speed
Unknown
Apparent Right ascension
Unknown
Apparent Declination
Unknown
Sunlit
N/A
Visualization observer readout
Local Sidereal Time
12:36:15
Azimuth
Unknown
Elevation
Unknown
Doppler factor
Unknown
Orbital elements
Apogee altitude
607.458 km
Perigee altitude
595.149 km
Semi-major axis
6,979.44 km
Eccentricity
0.00088
Inclination
97.8136°
RAAN
261.1047°
Arg. of periapsis
164.6555°
True anomaly
195.46604°
Mean anomaly
195.493°
Eccentric anomaly
195.47952°
Mean motion
3.72231 °/min
Orbital period
96.71 mins
BSTAR
0.00011209
Loading maneuver chart data...
Computing Atmospheric mass density...
Loading historical data...
Loading historical data...
Loading historical data...
Loading historical data...
Loading historical data...
Loading historical data...
Loading historical data...

Documentation

Showing up to 5 results
|